Showing default

CENTISPACE-1 S7, 62576

Orbit data source: Space-Track

CENTISPACE-1 S7, 62576 is a payload satellite owned by Centispace (CN) in LEO that was launched on Mon, 13 Jan 2025 UTC via a JIELONG-3 launch vehicle from the Yellow Sea Launch Area, China (YSLA). Payload-class satellites include a variety of spacecraft equipped with specific instruments for various scientific and technological missions. These include communications satellites like Starlink; space stations such as the ISS; scientific satellites like the Hubble; Earth observation satellites from companies like Planet Labs, Umbra, and HawkEye 360; GPS; miniature CubeSats for education and research; and military/defense satellites.

Loading next visibility...
Identifier
62576, 2025-007B
Orbit
LEO
Country
Flag of CNCN / PRC
Related business
Manufacturer
DFH Shenzhen
Mission
Operational Commercial Nav/Com
Bus & Motor
WK01, Unknown motor
Mass
140 kg wet, 140 kg dry
Launch date (UTC)
2025-01-13 (8 months ago)
Launch vehicle
JIELONG-3
Launch site
Yellow Sea Launch Area, China (YSLA)
Object type
Payload
Rocket body
Debris
Shape & HBR
Box + 2 Pan, 1.0 m
Radar Cross Section
0.833 m², Medium (>0.1 m² and < 1m²)

Expand to show TLE details & history
Last TLE update: 1 week ago

TLE from 1 week ago
0 CENTISPACE-1 S7
1 62576U 25007B   25251.57353513  .00000350  00000-0  13790-3 0  9998
2 62576  54.9778 241.5769 0066729 351.6851   8.3024 14.47775305 35087
Epoch: 2025-09-08T13:45Z
TLE epoch observation values (Epoch: 2025-09-08T13:45:53.435Z)
Latitude
-0.00007°
Longitude
47.22749°
Altitude
687.03 km
Speed
7.539 km/s
True Right ascension
16h 06m 18s
True Declination
0° 00' 00"
Sunlit
Object was in daylight at epoch
Visualization orbit readout
Latitude
Unknown
Longitude
Unknown
Altitude
Unknown
Speed
Unknown
Apparent Right ascension
Unknown
Apparent Declination
Unknown
Sunlit
N/A
Visualization observer readout
Local Sidereal Time
03:05:58
Azimuth
Unknown
Elevation
Unknown
Doppler factor
Unknown
Orbital elements
Apogee altitude
780.342 km
Perigee altitude
685.44 km
Semi-major axis
7,111.028 km
Eccentricity
0.00667
Inclination
54.9778°
RAAN
241.5769°
Arg. of periapsis
351.6851°
True anomaly
8.41373°
Mean anomaly
8.3024°
Eccentric anomaly
8.35797°
Mean motion
3.61947 °/min
Orbital period
99.46 mins
BSTAR
0.0001379
Loading maneuver chart data...
Computing Atmospheric mass density...
Loading historical data...
Loading historical data...
Loading historical data...
Loading historical data...
Loading historical data...
Loading historical data...
Loading historical data...

Documentation

Showing up to 5 results
|